[[{"header":{"parameterUnit":"m.s-1","parameterCategory":1,"la1":30.2991,"la2":30.254,"lo1":-89.0895,"lo2":-89.0444,"dy":0.0017,"dx":0.0017,"nx":28,"ny":28,"refTime":"2024-03-06T09:00:00:Z","depth":0,"parameterNumber":2,"parameterNumberName":"U-component_of_WINDS"},"data":[0,0,0,0,0,0,0,0,0,0,0,0,0,0,0,0,0,0,0,0,0,0,0,0,0,0,0,0,0,0,0,0,0,0,0,0,0,0,0,0,0,0,0,0,0,0,0,0,0,0,0,0,0,0,0,0,0,0,1.894,1.894,0,1.9014,1.9015,1.9016,1.8998,1.8997,1.8995,1.8994,1.9074,1.9077,1.908,0,0,0,0,0,0,0,0,0,0,0,0,0,1.8786,1.8789,1.8939,1.894,1.8941,1.9014,1.9015,1.9016,1.8999,1.8997,1.8995,1.8993,1.9073,1.9077,1.9081,0,0,0,0,0,0,0,0,0,0,0,0,0,1.8856,1.879,1.8939,1.8941,1.8942,1.9014,1.9015,1.9016,1.8999,1.8997,1.8995,1.8993,1.9071,1.9076,1.9081,1.9157,0,0,1.9097,1.9099,0,0,0,0,0,0,0,0,1.8852,1.8862,1.894,1.8941,1.8942,1.8995,1.899,1.9063,1.8999,1.8977,1.8994,1.8992,1.9049,1.9056,1.9075,1.916,1.9164,1.9098,1.9101,1.9103,1.9104,0,0,0,0,0,0,0,1.8847,1.8859,1.8969,1.8941,1.8943,1.894,1.8947,1.9004,1.9025,1.8979,1.8978,1.8987,1.905,1.907,1.9077,1.9165,1.9098,1.9102,1.9105,1.9107,1.9319,1.9321,0,0,0,0,0,0,1.8841,1.8855,1.8967,1.8971,1.8891,1.8944,1.8953,1.898,1.9024,1.9029,1.8989,1.8986,1.9062,1.9071,1.9079,1.9173,1.9103,1.9108,1.9111,1.9316,1.9319,1.9322,0,0,0,0,0,0,1.8838,1.8851,1.8964,1.8913,1.8927,1.8949,1.898,1.8983,1.9003,1.9031,1.9035,1.9006,1.9061,1.9072,1.9138,1.9175,1.911,1.9115,1.9313,1.9317,1.9321,1.9358,0,0,0,0,0,0,1.8834,1.885,1.8878,1.8913,1.893,1.902,1.8982,1.8986,1.9012,1.9009,1.9048,1.9053,1.906,1.913,1.9143,1.9181,1.9119,1.931,1.9315,1.932,1.9353,1.9362,1.937,0,0,0,0,0,1.8828,1.8885,1.8879,1.8893,1.8964,1.9022,1.9031,1.9038,1.9015,1.9044,1.9062,1.9051,1.9169,1.9137,1.9151,1.9191,1.9308,1.9314,1.9319,1.935,1.9361,1.937,0,0,0,0,0,0,1.8854,1.889,1.8884,1.8953,1.8985,1.9019,1.9055,1.9049,1.9088,1.9083,1.9091,1.91,1.9168,1.9186,1.915,1.9268,1.9235,1.9244,1.9254,1.9264,1.9272,1.9267,1.9123,0,0,0,0,0,1.8867,1.891,1.8939,1.8998,1.9014,1.9032,1.9057,1.906,1.9093,1.9106,1.9129,1.9163,1.9208,1.9237,1.9279,1.9356,1.9366,1.9391,1.9399,1.9406,1.9414,1.9458,1.9471,1.9341,1.9341,1.9341,0,0,1.8896,1.8921,1.8947,1.9004,1.9029,1.9074,1.9043,1.9092,1.9126,1.9114,1.9178,1.9196,1.9234,1.9307,1.934,1.9324,1.9452,1.9413,1.9418,1.9422,1.9465,1.9478,1.9489,1.9345,1.9344,1.9343,0,0,1.8972,1.8994,1.9047,1.9073,1.911,1.9122,1.9135,1.917,1.9182,1.9246,1.9238,1.928,1.9356,1.9384,1.9408,1.9498,1.949,1.9512,1.9555,1.9599,1.9609,1.9618,1.9653,1.9664,1.9519,1.9519,1.9519,0,1.9004,1.9071,1.9075,1.9126,1.9152,1.9142,1.9197,1.9222,1.9272,1.9291,1.9272,1.9369,1.9394,1.9474,1.9496,1.9516,1.9532,1.9507,1.9607,1.9616,1.9625,1.9658,1.967,1.9522,1.9521,1.9521,1.9521,0,1.9109,1.9155,1.9194,1.9242,1.9273,1.9325,1.9339,1.937,1.9371,1.9385,1.9452,1.9482,1.9531,1.955,1.9551,1.9632,1.9621,1.9605,1.9572,1.964,1.9671,1.9683,1.9525,1.9524,1.9524,1.9523,0,0,1.9202,1.9254,1.9268,1.9291,1.9332,1.9369,1.9422,1.947,1.9497,1.9532,1.9579,1.9644,1.963,1.9658,1.9662,1.97,1.9772,1.968,1.9681,1.9698,1.9866,1.9879,1.9893,1.9767,1.977,1.9772,1.9863,0,1.9284,1.9376,1.9383,1.9467,1.9512,1.9504,1.9551,1.9582,1.9598,1.9639,1.9657,1.9704,1.9681,1.9698,1.9735,1.9756,1.9807,1.9749,1.9813,1.9815,1.9804,1.9909,1.9922,2.0007,1.9875,1.9877,1.9879,0,1.939,1.9429,1.9517,1.9555,1.9574,1.9615,1.9661,1.97,1.9737,1.9746,1.9778,1.9777,1.9834,1.9799,1.9879,1.984,1.9866,1.9881,1.9884,1.9891,1.9852,1.9921,2.0034,2.0048,1.9897,1.9896,1.9895,0,1.9453,1.9526,1.9589,1.9609,1.9653,1.9683,1.9704,1.9738,1.9767,1.9808,1.9827,1.9874,1.99,1.9937,1.9951,1.9923,2.0031,1.9996,2.0042,2.0042,2.0066,2.0064,2.0187,2.008,2.008,2.008,2.008,0,1.9543,1.9598,1.9618,1.9657,1.9719,1.9728,1.979,1.9808,1.984,1.9884,1.988,1.9922,1.9936,1.9981,1.9992,2.0058,2.0069,2.0079,2.0082,2.0081,2.008,2.0099,2.0094,2.0083,2.0082,2.0082,2.0081,0,1.9623,1.9638,1.9707,1.9744,1.9755,1.9799,1.9832,1.9871,1.9886,1.9942,1.9955,1.998,2.0033,2.0049,2.0113,2.0121,2.0198,2.0195,2.0186,2.0187,2.0232,2.0228,2.0373,2.0393,2.0272,2.0273,2.0274,0,1.9681,1.9723,1.9765,1.9794,1.9815,1.9862,1.9892,1.9902,1.9934,1.998,2.0014,2.0066,2.0109,2.0194,2.0218,2.0268,2.0267,2.0314,2.0274,2.0272,2.027,2.0268,2.0273,2.0322,2.0323,2.0324,2.0325,0,1.9782,1.9788,1.9831,1.9877,1.9913,1.995,1.9986,2.001,2.0026,2.0063,2.0116,2.0149,2.0215,2.0268,2.0318,2.0341,2.0337,2.0337,2.0351,2.035,2.0344,2.035,2.0208,2.0334,2.0333,2.0332,2.0332,2.0332,1.9854,1.9892,1.9928,1.9977,2.0005,2.0039,2.0078,2.0098,2.0143,2.0196,2.02,2.0259,2.0298,2.0365,2.0391,2.0438,2.0425,2.0444,2.0449,2.0454,2.0459,2.0336,2.0447,2.0447,2.0447,2.0447,2.0447,0,1.9957,1.998,2.0025,2.0075,2.0114,2.0105,2.0145,2.0179,2.023,2.0266,2.0308,2.0371,2.0423,2.0452,2.0504,2.0537,2.0536,2.055,2.0549,2.0555,2.0467,2.0451,2.055,2.055,2.055,2.055,2.055,2.055,2.0015,2.008,2.0091,2.017,2.0193,2.025,2.0274,2.0307,2.0335,2.0406,2.0448,2.0467,2.0501,2.0556,2.0604,2.0611,2.0631,2.0647,2.0653,2.0571,2.056,2.055,2.0535,2.0651,2.0651,2.0738,2.0739,2.0739]},{"header":{"parameterUnit":"m.s-1","parameterCategory":1,"la1":30.2991,"la2":30.254,"lo1":-89.0895,"lo2":-89.0444,"dy":0.0017,"dx":0.0017,"nx":28,"ny":28,"refTime":"2024-03-06T09:00:00:Z","depth":0,"parameterNumber":3,"parameterNumberName":"V-component_of_WINDS"},"data":[0,0,0,0,0,0,0,0,0,0,0,0,0,0,0,0,0,0,0,0,0,0,0,0,0,0,0,0,0,0,0,0,0,0,0,0,0,0,0,0,0,0,0,0,0,0,0,0,0,0,0,0,0,0,0,0,0,0,-1.6402,-1.6403,0,-1.6451,-1.6451,-1.6452,-1.6522,-1.6523,-1.6525,-1.6526,-1.6575,-1.6575,-1.6575,0,0,0,0,0,0,0,0,0,0,0,0,0,-1.6374,-1.6374,-1.6402,-1.6403,-1.6403,-1.6451,-1.6451,-1.6452,-1.6522,-1.6523,-1.6525,-1.6526,-1.6575,-1.6575,-1.6575,0,0,0,0,0,0,0,0,0,0,0,0,0,-1.6401,-1.6374,-1.6402,-1.6444,-1.6448,-1.645,-1.6451,-1.6452,-1.6522,-1.6523,-1.6525,-1.6527,-1.6575,-1.6575,-1.6575,-1.654,0,0,-1.6576,-1.6576,0,0,0,0,0,0,0,0,-1.6399,-1.6402,-1.6437,-1.6441,-1.6446,-1.6482,-1.6459,-1.6482,-1.6521,-1.6494,-1.6526,-1.6528,-1.6543,-1.6546,-1.6551,-1.6542,-1.6545,-1.6576,-1.6576,-1.6576,-1.6576,0,0,0,0,0,0,0,-1.6397,-1.64,-1.6421,-1.6438,-1.6443,-1.6462,-1.6468,-1.6464,-1.6507,-1.6496,-1.6501,-1.6506,-1.6545,-1.655,-1.6552,-1.6545,-1.6576,-1.6576,-1.6577,-1.6577,-1.6517,-1.6516,0,0,0,0,0,0,-1.6389,-1.6398,-1.642,-1.6423,-1.6427,-1.6461,-1.6467,-1.6469,-1.6507,-1.6515,-1.6505,-1.6509,-1.6549,-1.6552,-1.6554,-1.652,-1.6576,-1.6577,-1.6577,-1.6519,-1.6517,-1.6515,0,0,0,0,0,0,-1.6388,-1.639,-1.6418,-1.6412,-1.6417,-1.6459,-1.646,-1.6469,-1.6474,-1.6514,-1.6522,-1.6501,-1.655,-1.6554,-1.6545,-1.6523,-1.6577,-1.6577,-1.6521,-1.6518,-1.6516,-1.6448,0,0,0,0,0,0,-1.6387,-1.6389,-1.6375,-1.6411,-1.6417,-1.6406,-1.6459,-1.6468,-1.6474,-1.6481,-1.6513,-1.652,-1.6552,-1.6544,-1.6545,-1.6524,-1.6577,-1.6523,-1.652,-1.6517,-1.6453,-1.6444,-1.6436,0,0,0,0,0,-1.6386,-1.6353,-1.6374,-1.6376,-1.64,-1.6404,-1.6408,-1.6445,-1.6472,-1.6459,-1.6486,-1.6519,-1.6525,-1.6542,-1.6544,-1.6523,-1.6525,-1.6521,-1.6517,-1.6457,-1.6446,-1.6436,0,0,0,0,0,0,-1.6312,-1.6358,-1.6382,-1.636,-1.6378,-1.6416,-1.6401,-1.6432,-1.6442,-1.6448,-1.6494,-1.6501,-1.6487,-1.6504,-1.6523,-1.6494,-1.653,-1.6526,-1.6484,-1.6473,-1.6465,-1.6462,-1.6577,0,0,0,0,0,-1.6293,-1.6292,-1.6333,-1.6309,-1.6317,-1.6358,-1.6361,-1.6389,-1.6409,-1.6417,-1.6443,-1.6462,-1.6469,-1.6472,-1.6479,-1.6456,-1.6466,-1.6442,-1.6434,-1.6427,-1.6424,-1.6418,-1.6409,-1.6502,-1.6502,-1.6503,0,0,-1.6254,-1.6279,-1.6276,-1.6295,-1.6313,-1.6313,-1.6363,-1.636,-1.6361,-1.6416,-1.641,-1.643,-1.6455,-1.644,-1.6434,-1.6453,-1.64,-1.6422,-1.6416,-1.6417,-1.6413,-1.6404,-1.6396,-1.65,-1.65,-1.6501,0,0,-1.6184,-1.6201,-1.6186,-1.6203,-1.623,-1.6257,-1.6254,-1.6289,-1.6305,-1.6299,-1.6343,-1.6345,-1.6354,-1.6372,-1.6382,-1.6324,-1.6356,-1.6325,-1.6282,-1.6275,-1.6268,-1.6262,-1.6245,-1.6238,-1.6321,-1.6321,-1.6321,0,-1.6132,-1.6133,-1.6174,-1.617,-1.6179,-1.6231,-1.6218,-1.6232,-1.6259,-1.6265,-1.6286,-1.6303,-1.6323,-1.6315,-1.6301,-1.6306,-1.6306,-1.6322,-1.6265,-1.626,-1.6255,-1.6239,-1.6232,-1.6317,-1.6318,-1.6318,-1.6318,0,-1.607,-1.607,-1.6055,-1.6083,-1.609,-1.608,-1.6123,-1.6125,-1.6154,-1.618,-1.6177,-1.6203,-1.622,-1.622,-1.6246,-1.6217,-1.6229,-1.6257,-1.6295,-1.6241,-1.6228,-1.6222,-1.6312,-1.6313,-1.6314,-1.6315,0,0,-1.5952,-1.6006,-1.6,-1.6015,-1.605,-1.6052,-1.6047,-1.6065,-1.6068,-1.6086,-1.6086,-1.6095,-1.6123,-1.6134,-1.6163,-1.6157,-1.6116,-1.6187,-1.6189,-1.6176,-1.6091,-1.6071,-1.6063,-1.6137,-1.6136,-1.6135,-1.609,0,-1.5891,-1.5886,-1.5925,-1.591,-1.5913,-1.5965,-1.5961,-1.5983,-1.6009,-1.6017,-1.6045,-1.6053,-1.6087,-1.6095,-1.6091,-1.6121,-1.6099,-1.6125,-1.614,-1.614,-1.6134,-1.6055,-1.6034,-1.5989,-1.6084,-1.6083,-1.6083,0,-1.5818,-1.5835,-1.582,-1.5861,-1.5864,-1.586,-1.5882,-1.5888,-1.5916,-1.5935,-1.5951,-1.5985,-1.5987,-1.6022,-1.6026,-1.6042,-1.6051,-1.6067,-1.6067,-1.6071,-1.6109,-1.6061,-1.5975,-1.597,-1.6074,-1.6075,-1.6075,0,-1.5739,-1.5757,-1.5753,-1.5764,-1.581,-1.5807,-1.5826,-1.5856,-1.5865,-1.5885,-1.5893,-1.5911,-1.5922,-1.5937,-1.5977,-1.5998,-1.5978,-1.6015,-1.5997,-1.5996,-1.5991,-1.5991,-1.5909,-1.5992,-1.5992,-1.5992,-1.5993,0,-1.5668,-1.5658,-1.5718,-1.5715,-1.5707,-1.5754,-1.5745,-1.5769,-1.5796,-1.5801,-1.5846,-1.585,-1.5902,-1.5912,-1.5944,-1.5945,-1.5948,-1.5966,-1.5975,-1.5964,-1.5962,-1.5971,-1.5976,-1.5991,-1.5991,-1.5991,-1.5992,0,-1.5577,-1.5617,-1.5616,-1.5661,-1.5673,-1.5665,-1.5705,-1.5706,-1.5735,-1.5741,-1.5745,-1.5792,-1.5807,-1.5849,-1.5874,-1.5896,-1.5889,-1.5904,-1.588,-1.5886,-1.5867,-1.5869,-1.5789,-1.5783,-1.5867,-1.5866,-1.5866,0,-1.553,-1.5525,-1.557,-1.5577,-1.5595,-1.5605,-1.5616,-1.5663,-1.5673,-1.5707,-1.5705,-1.5724,-1.5742,-1.5764,-1.5801,-1.5822,-1.584,-1.5811,-1.5843,-1.5833,-1.5844,-1.5845,-1.5846,-1.5804,-1.5803,-1.5802,-1.5801,0,-1.5444,-1.5466,-1.548,-1.5502,-1.5515,-1.5534,-1.5556,-1.556,-1.5613,-1.5622,-1.5639,-1.5653,-1.5681,-1.5701,-1.5729,-1.5751,-1.5786,-1.579,-1.5788,-1.5777,-1.5765,-1.5775,-1.5864,-1.5792,-1.5793,-1.5794,-1.5794,-1.5794,-1.5377,-1.5376,-1.5409,-1.5425,-1.5447,-1.5468,-1.5473,-1.5505,-1.5519,-1.5546,-1.5573,-1.5588,-1.5622,-1.5663,-1.5683,-1.5697,-1.5715,-1.571,-1.5709,-1.5708,-1.5704,-1.5761,-1.5702,-1.5702,-1.5702,-1.5702,-1.5703,0,-1.5296,-1.5321,-1.5335,-1.5366,-1.538,-1.5412,-1.544,-1.545,-1.5462,-1.549,-1.5508,-1.553,-1.5551,-1.5591,-1.5616,-1.562,-1.5637,-1.5625,-1.5627,-1.5632,-1.5685,-1.5686,-1.5611,-1.5611,-1.5611,-1.5611,-1.5611,-1.5611,-1.5256,-1.5257,-1.5283,-1.5298,-1.5324,-1.5339,-1.5353,-1.5374,-1.5397,-1.542,-1.5438,-1.5464,-1.5499,-1.5527,-1.5549,-1.5561,-1.5569,-1.5553,-1.557,-1.5619,-1.5628,-1.5636,-1.5638,-1.5554,-1.5553,-1.5516,-1.5516,-1.5516]}]]